Вернуться в каталог

COSMOS 2251 DEB

АктивенLEO
NORAD 37996·DEBRIS·🇷🇺 Russia

Запущен Jun 16, 1993 с Plesetsk Cosmodrome

Loading…

Ближайшие Пролёты (ближайшие 24 часа)

TLE

УстаревшееSource: Space-Track

Эпоха: Aug 29, 2026, 07:13 UTC

1 37996U 93036BQX 26241.30137163  .00006680  00000-0  27903-2 0  9997
2 37996  74.0618 104.8895 0220706 153.3506 207.9186 14.14023779598000

Отслеживайте COSMOS 2251 DEB в реальном времени с AllMySat

Download on the App Store